When you browse on this site, cookies collect data to enhance your experience and personalize the content and advertising you see.
Visit our Privacy Policy to learn more. By continuing to use the site, you agree to this use of cookies and data.
  • In Romania
  • List of Countries
  • For 7 days
  • Water Temperature
  • Weather Map
  • Weather Widgets
  • user-avatar
    Login

    Hourly Weather Kindia

    Today, 7 December, Saturday

    Time Temperature Precipitation Wind Pressure Humidity
    00:00 +23°C° 0 mm 2 mps 706 mmHg 19%
    01:00 +23°C° 0 mm 2 mps 706 mmHg 19%
    02:00 +21°C° 0 mm 2 mps 706 mmHg 19%
    03:00 +21°C° 0 mm 3 mps 706 mmHg 20%
    04:00 +20°C° 0 mm 3 mps 706 mmHg 20%
    05:00 +20°C° 0 mm 3 mps 706 mmHg 21%
    06:00 +20°C° 0 mm 3 mps 707 mmHg 22%
    07:00 +20°C° 0 mm 3 mps 707 mmHg 23%
    08:00 +24°C° 0 mm 3 mps 708 mmHg 20%
    09:00 +27°C° 0 mm 3 mps 708 mmHg 16%
    10:00 +30°C° 0 mm 3 mps 709 mmHg 13%
    11:00 +32°C° 0 mm 2 mps 708 mmHg 12%
    12:00 +35°C° 0 mm 2 mps 708 mmHg 10%
    13:00 +37°C° 0 mm 2 mps 707 mmHg 9%
    14:00 +36°C° 0 mm 2 mps 707 mmHg 9%
    15:00 +36°C° 0 mm 2 mps 706 mmHg 9%
    16:00 +36°C° 0 mm 2 mps 706 mmHg 9%
    17:00 +32°C° 0 mm 2 mps 706 mmHg 11%
    18:00 +30°C° 0 mm 1 mps 705 mmHg 13%
    19:00 +27°C° 0 mm 1 mps 705 mmHg 15%
    20:00 +26°C° 0 mm 2 mps 706 mmHg 16%
    21:00 +25°C° 0 mm 2 mps 706 mmHg 17%
    22:00 +24°C° 0 mm 2 mps 706 mmHg 17%
    23:00 +24°C° 0 mm 2 mps 706 mmHg 18%

    Tomorrow, 8 December, Sunday

    Time Temperature Precipitation Wind Pressure Humidity
    00:00 +23°C° 0 mm 2 mps 706 mmHg 19%
    01:00 +22°C° 0 mm 3 mps 706 mmHg 20%
    02:00 +21°C° 0 mm 3 mps 706 mmHg 21%
    03:00 +21°C° 0 mm 3 mps 706 mmHg 21%
    04:00 +20°C° 0 mm 3 mps 706 mmHg 22%
    05:00 +20°C° 0 mm 3 mps 706 mmHg 23%
    06:00 +20°C° 0 mm 2 mps 707 mmHg 25%
    07:00 +20°C° 0 mm 2 mps 707 mmHg 26%
    08:00 +23°C° 0 mm 2 mps 708 mmHg 22%
    09:00 +26°C° 0 mm 2 mps 708 mmHg 19%
    10:00 +29°C° 0 mm 2 mps 708 mmHg 15%
    11:00 +31°C° 0 mm 2 mps 708 mmHg 13%
    12:00 +35°C° 0 mm 2 mps 708 mmHg 11%
    13:00 +37°C° 0 mm 2 mps 707 mmHg 9%
    14:00 +36°C° 0 mm 2 mps 707 mmHg 9%
    15:00 +36°C° 0 mm 2 mps 706 mmHg 9%
    16:00 +36°C° 0 mm 2 mps 706 mmHg 9%
    17:00 +32°C° 0 mm 2 mps 706 mmHg 11%
    18:00 +30°C° 0 mm 2 mps 706 mmHg 13%
    19:00 +27°C° 0 mm 2 mps 706 mmHg 15%
    20:00 +26°C° 0 mm 2 mps 706 mmHg 16%
    21:00 +25°C° 0 mm 2 mps 706 mmHg 16%
    22:00 +24°C° 0 mm 2 mps 706 mmHg 17%
    23:00 +24°C° 0 mm 2 mps 706 mmHg 18%

    Day after tomorrow, 9 December, Monday

    Time Temperature Precipitation Wind Pressure Humidity
    00:00 +23°C° 0 mm 2 mps 706 mmHg 20%
    01:00 +21°C° 0 mm 2 mps 706 mmHg 21%
    02:00 +21°C° 0 mm 2 mps 706 mmHg 23%
    03:00 +20°C° 0 mm 2 mps 706 mmHg 26%
    04:00 +20°C° 0 mm 2 mps 705 mmHg 28%
    05:00 +19°C° 0 mm 2 mps 706 mmHg 29%
    06:00 +19°C° 0 mm 2 mps 706 mmHg 31%
    07:00 +19°C° 0 mm 2 mps 707 mmHg 33%
    08:00 +23°C° 0 mm 2 mps 707 mmHg 28%
    09:00 +26°C° 0 mm 2 mps 708 mmHg 24%
    10:00 +29°C° 0 mm 2 mps 709 mmHg 20%
    11:00 +31°C° 0 mm 2 mps 708 mmHg 17%
    12:00 +35°C° 0 mm 2 mps 708 mmHg 14%
    13:00 +36°C° 0 mm 1 mps 708 mmHg 11%
    14:00 +35°C° 0 mm 1 mps 707 mmHg 11%
    15:00 +36°C° 0 mm 2 mps 706 mmHg 11%
    16:00 +36°C° 0 mm 2 mps 706 mmHg 10%
    17:00 +32°C° 0 mm 2 mps 706 mmHg 13%
    18:00 +30°C° 0 mm 2 mps 705 mmHg 15%
    19:00 +27°C° 0 mm 2 mps 705 mmHg 17%
    20:00 +26°C° 0 mm 2 mps 706 mmHg 18%
    21:00 +25°C° 0 mm 2 mps 706 mmHg 19%
    22:00 +24°C° 0 mm 2 mps 706 mmHg 19%
    23:00 +24°C° 0 mm 2 mps 706 mmHg 22%

    10 December, Tuesday

    Time Temperature Precipitation Wind Pressure Humidity
    00:00 +22°C° 0 mm 3 mps 706 mmHg 24%
    01:00 +21°C° 0 mm 3 mps 706 mmHg 27%
    02:00 +20°C° 0 mm 3 mps 706 mmHg 27%
    03:00 +20°C° 0 mm 3 mps 705 mmHg 27%
    04:00 +19°C° 0 mm 3 mps 705 mmHg 27%
    05:00 +19°C° 0 mm 3 mps 706 mmHg 28%
    06:00 +19°C° 0 mm 2 mps 706 mmHg 29%
    07:00 +19°C° 0 mm 2 mps 707 mmHg 29%
    08:00 +23°C° 0 mm 2 mps 707 mmHg 25%
    09:00 +26°C° 0 mm 2 mps 708 mmHg 21%
    10:00 +29°C° 0 mm 2 mps 708 mmHg 17%
    11:00 +32°C° 0 mm 1 mps 708 mmHg 15%
    12:00 +34°C° 0 mm 1 mps 707 mmHg 13%
    13:00 +35°C° 0 mm 0 mps 707 mmHg 11%
    14:00 +36°C° 0 mm 1 mps 706 mmHg 11%
    15:00 +35°C° 0 mm 1 mps 706 mmHg 11%
    16:00 +35°C° 0 mm 1 mps 705 mmHg 11%
    17:00 +32°C° 0 mm 1 mps 705 mmHg 13%
    18:00 +30°C° 0 mm 1 mps 705 mmHg 15%
    19:00 +27°C° 0 mm 1 mps 705 mmHg 17%
    20:00 +26°C° 0 mm 1 mps 705 mmHg 18%
    21:00 +25°C° 0 mm 1 mps 705 mmHg 19%
    22:00 +24°C° 0 mm 1 mps 706 mmHg 20%
    23:00 +23°C° 0 mm 2 mps 706 mmHg 21%

    11 December, Wednesday

    Time Temperature Precipitation Wind Pressure Humidity
    00:00 +21°C° 0 mm 2 mps 706 mmHg 22%
    01:00 +21°C° 0 mm 3 mps 706 mmHg 23%
    02:00 +20°C° 0 mm 2 mps 706 mmHg 23%
    03:00 +19°C° 0 mm 2 mps 705 mmHg 23%
    04:00 +19°C° 0 mm 2 mps 705 mmHg 24%
    05:00 +19°C° 0 mm 2 mps 706 mmHg 23%
    06:00 +19°C° 0 mm 2 mps 706 mmHg 23%
    07:00 +19°C° 0 mm 2 mps 706 mmHg 22%
    08:00 +23°C° 0 mm 2 mps 707 mmHg 19%
    09:00 +26°C° 0 mm 2 mps 708 mmHg 15%
    10:00 +30°C° 0 mm 2 mps 708 mmHg 12%
    11:00 +32°C° 0 mm 2 mps 708 mmHg 11%
    12:00 +35°C° 0 mm 2 mps 707 mmHg 10%
    13:00 +36°C° 0 mm 1 mps 707 mmHg 9%
    14:00 +36°C° 0 mm 1 mps 706 mmHg 9%
    15:00 +35°C° 0 mm 1 mps 706 mmHg 9%
    16:00 +35°C° 0 mm 1 mps 705 mmHg 9%
    17:00 +32°C° 0 mm 1 mps 705 mmHg 11%
    18:00 +29°C° 0 mm 1 mps 705 mmHg 13%
    19:00 +27°C° 0 mm 1 mps 705 mmHg 15%
    20:00 +26°C° 0 mm 1 mps 705 mmHg 15%
    21:00 +25°C° 0 mm 1 mps 706 mmHg 16%
    22:00 +24°C° 0 mm 2 mps 706 mmHg 17%
    23:00 +23°C° 0 mm 2 mps 706 mmHg 18%

    12 December, Thursday

    Time Temperature Precipitation Wind Pressure Humidity
    00:00 +21°C° 0 mm 2 mps 706 mmHg 19%
    01:00 +20°C° 0 mm 3 mps 706 mmHg 20%
    02:00 +20°C° 0 mm 3 mps 706 mmHg 20%
    03:00 +20°C° 0 mm 3 mps 705 mmHg 20%
    04:00 +19°C° 0 mm 3 mps 705 mmHg 20%
    05:00 +19°C° 0 mm 3 mps 706 mmHg 20%
    06:00 +19°C° 0 mm 3 mps 706 mmHg 21%
    07:00 +19°C° 0 mm 3 mps 707 mmHg 22%
    08:00 +22°C° 0 mm 3 mps 707 mmHg 20%
    09:00 +25°C° 0 mm 3 mps 708 mmHg 19%
    10:00 +28°C° 0 mm 3 mps 708 mmHg 17%
    11:00 +30°C° 0 mm 3 mps 708 mmHg 16%
    12:00 +33°C° 0 mm 3 mps 708 mmHg 14%
    13:00 +35°C° 0 mm 2 mps 707 mmHg 12%
    14:00 +35°C° 0 mm 2 mps 707 mmHg 12%
    15:00 +35°C° 0 mm 2 mps 706 mmHg 12%
    16:00 +35°C° 0 mm 2 mps 706 mmHg 12%
    17:00 +32°C° 0 mm 2 mps 706 mmHg 14%
    18:00 +29°C° 0 mm 2 mps 706 mmHg 17%
    19:00 +27°C° 0 mm 2 mps 706 mmHg 19%
    20:00 +26°C° 0 mm 2 mps 706 mmHg 20%
    21:00 +25°C° 0 mm 2 mps 707 mmHg 21%
    22:00 +24°C° 0 mm 3 mps 707 mmHg 22%
    23:00 +22°C° 0 mm 3 mps 707 mmHg 23%
    Show more